EJA157 KMEM-KMLU

Flight info

Callsign EJA157
Flight time 0h 36m
Altitude 34000
Route PIEPE6 IBUFY GLH MLU
Aircraft C25C/M-L/C

Departure

Time 2026-05-04 22:56
Airport Memphis International Airport (KMEM)

Arrival

Time 2026-05-04 23:32
Airport Monroe Regional Airport (KMLU)
Time Latitude Longitude Altitude Speed Heading
2026-05-04 22:38 35.05434 -89.98251 324 ft 0 kts 271°
2026-05-04 22:47 35.05434 -89.98245 323 ft 3 kts 253°
2026-05-04 22:47 35.05447 -89.98230 324 ft 3 kts 187°
2026-05-04 22:47 35.05463 -89.98237 324 ft 3 kts 122°
2026-05-04 22:48 35.05466 -89.98249 324 ft 0 kts 98°
2026-05-04 22:52 35.05466 -89.98246 324 ft 4 kts 98°
2026-05-04 22:52 35.05469 -89.98186 324 ft 8 kts 84°
2026-05-04 22:52 35.05473 -89.98116 324 ft 9 kts 86°
2026-05-04 22:52 35.05474 -89.98096 324 ft 0 kts 86°
2026-05-04 22:53 35.05480 -89.98000 324 ft 18 kts 86°
2026-05-04 22:53 35.05483 -89.97845 324 ft 19 kts 99°
2026-05-04 22:53 35.05445 -89.97733 322 ft 10 kts 91°
2026-05-04 22:54 35.05445 -89.97728 321 ft 0 kts 91°
2026-05-04 22:55 35.05445 -89.97715 321 ft 8 kts 91°
2026-05-04 22:55 35.05407 -89.97616 319 ft 19 kts 171°
2026-05-04 22:55 35.05151 -89.97612 316 ft 77 kts 179°
2026-05-04 22:55 35.04355 -89.97597 634 ft 143 kts 181°
2026-05-04 22:56 35.03245 -89.97565 1430 ft 179 kts 182°
2026-05-04 22:56 35.01832 -89.97542 2365 ft 220 kts 181°
2026-05-04 22:56 35.00209 -89.97500 3297 ft 244 kts 181°
2026-05-04 22:56 34.98470 -89.97471 4212 ft 256 kts 182°
2026-05-04 22:57 34.96626 -89.97437 5160 ft 272 kts 182°
2026-05-04 22:57 34.94700 -89.97396 6096 ft 273 kts 182°
2026-05-04 22:57 34.92800 -89.97347 6952 ft 275 kts 182°
2026-05-04 22:57 34.90859 -89.97312 7766 ft 281 kts 181°
2026-05-04 22:58 34.88882 -89.97266 8589 ft 286 kts 181°
2026-05-04 22:58 34.86906 -89.97338 9421 ft 288 kts 189°
2026-05-04 22:58 34.84893 -89.97572 10235 ft 294 kts 186°
2026-05-04 22:58 34.82797 -89.97740 11042 ft 306 kts 186°
2026-05-04 22:59 34.80662 -89.97954 11849 ft 319 kts 186°
2026-05-04 22:59 34.78372 -89.98196 12794 ft 341 kts 186°
2026-05-04 22:59 34.75938 -89.98437 13778 ft 360 kts 186°
2026-05-04 22:59 34.73374 -89.98692 14663 ft 376 kts 186°
2026-05-04 23:00 34.70718 -89.98966 15575 ft 388 kts 188°
2026-05-04 23:00 34.68118 -89.99770 16487 ft 393 kts 204°
2026-05-04 23:00 34.65544 -90.00934 17458 ft 389 kts 203°
2026-05-04 23:00 34.63003 -90.02075 18413 ft 391 kts 204°
2026-05-04 23:01 34.60445 -90.03215 19287 ft 400 kts 204°
2026-05-04 23:01 34.57805 -90.04384 20191 ft 406 kts 203°
2026-05-04 23:01 34.55123 -90.05566 21122 ft 411 kts 204°
2026-05-04 23:01 34.52427 -90.06763 22080 ft 414 kts 204°
2026-05-04 23:02 34.49711 -90.07967 23068 ft 415 kts 204°
2026-05-04 23:02 34.47005 -90.09126 23974 ft 417 kts 201°
2026-05-04 23:02 34.44117 -90.09655 24819 ft 422 kts 189°
2026-05-04 23:02 34.41200 -90.10053 25706 ft 420 kts 191°
2026-05-04 23:03 34.38292 -90.10459 26620 ft 418 kts 191°
2026-05-04 23:03 34.35414 -90.10852 27549 ft 415 kts 191°
2026-05-04 23:03 34.32588 -90.11231 28506 ft 411 kts 191°
2026-05-04 23:03 34.29760 -90.11620 29507 ft 407 kts 192°
2026-05-04 23:04 34.26956 -90.12005 30452 ft 402 kts 192°
2026-05-04 23:04 34.24188 -90.12382 31347 ft 396 kts 192°
2026-05-04 23:04 34.21467 -90.12754 32263 ft 389 kts 193°
2026-05-04 23:04 34.18831 -90.13110 33199 ft 381 kts 193°
2026-05-04 23:05 34.16198 -90.13477 33922 ft 380 kts 195°
2026-05-04 23:05 34.13576 -90.14169 33930 ft 390 kts 204°
2026-05-04 23:05 34.08591 -90.16952 33933 ft 404 kts 220°
2026-05-04 23:06 34.04391 -90.21486 33951 ft 411 kts 237°
2026-05-04 23:06 34.00728 -90.26957 33951 ft 426 kts 237°
2026-05-04 23:07 33.96975 -90.32528 33943 ft 427 kts 238°
2026-05-04 23:07 33.93251 -90.38070 33947 ft 426 kts 237°
2026-05-04 23:08 33.89506 -90.43623 33937 ft 426 kts 238°
2026-05-04 23:08 33.85793 -90.49126 33932 ft 426 kts 238°
2026-05-04 23:09 33.82045 -90.54666 33932 ft 425 kts 238°
2026-05-04 23:09 33.78328 -90.60158 33920 ft 425 kts 238°
2026-05-04 23:10 33.74575 -90.65691 33912 ft 425 kts 238°
2026-05-04 23:10 33.70853 -90.71175 33916 ft 425 kts 238°
2026-05-04 23:11 33.67108 -90.76681 33917 ft 425 kts 238°
2026-05-04 23:11 33.63365 -90.82178 33920 ft 425 kts 238°
2026-05-04 23:12 33.59609 -90.87682 33930 ft 425 kts 238°
2026-05-04 23:12 33.55921 -90.93066 33315 ft 409 kts 238°
2026-05-04 23:13 33.54136 -90.95674 32381 ft 399 kts 238°
2026-05-04 23:13 33.52332 -90.98166 31483 ft 395 kts 233°
2026-05-04 23:13 33.50321 -91.00404 30615 ft 392 kts 228°
2026-05-04 23:13 33.48262 -91.02527 29734 ft 387 kts 227°
2026-05-04 23:14 33.46238 -91.04628 28760 ft 382 kts 227°
2026-05-04 23:14 33.44261 -91.06687 27835 ft 378 kts 227°
2026-05-04 23:14 33.42279 -91.08735 26938 ft 374 kts 227°
2026-05-04 23:14 33.40313 -91.10770 26060 ft 370 kts 226°
2026-05-04 23:15 33.38376 -91.12769 25218 ft 366 kts 226°
2026-05-04 23:15 33.36454 -91.14760 24397 ft 362 kts 226°
2026-05-04 23:15 33.34577 -91.16698 23607 ft 359 kts 226°
2026-05-04 23:15 33.32687 -91.18649 22683 ft 355 kts 225°
2026-05-04 23:16 33.30821 -91.20573 21772 ft 353 kts 225°
2026-05-04 23:16 33.28965 -91.22489 20886 ft 350 kts 225°
2026-05-04 23:16 33.27122 -91.24387 20029 ft 349 kts 225°
2026-05-04 23:16 33.25908 -91.25640 19471 ft 347 kts 225°
2026-05-04 23:17 33.23481 -91.28135 18390 ft 346 kts 225°
2026-05-04 23:17 33.22249 -91.29406 17787 ft 345 kts 224°
2026-05-04 23:17 33.20455 -91.31249 16892 ft 343 kts 224°
2026-05-04 23:17 33.18643 -91.33113 16010 ft 342 kts 224°
2026-05-04 23:18 33.16837 -91.34963 15151 ft 340 kts 224°
2026-05-04 23:18 33.15047 -91.36805 14322 ft 339 kts 224°
2026-05-04 23:18 33.13262 -91.38634 13489 ft 345 kts 224°
2026-05-04 23:18 33.11441 -91.40505 13020 ft 337 kts 223°
2026-05-04 23:19 33.09705 -91.42272 13017 ft 317 kts 224°
2026-05-04 23:19 33.08092 -91.43926 13009 ft 302 kts 224°
2026-05-04 23:19 33.06499 -91.45564 13008 ft 308 kts 224°
2026-05-04 23:19 33.04842 -91.47268 13012 ft 320 kts 224°
2026-05-04 23:20 33.03118 -91.49029 13014 ft 330 kts 224°
2026-05-04 23:20 33.01378 -91.50804 12686 ft 332 kts 224°
2026-05-04 23:20 32.99619 -91.52598 12160 ft 332 kts 224°
2026-05-04 23:20 32.97864 -91.54388 11640 ft 331 kts 224°
2026-05-04 23:21 32.96120 -91.56169 11132 ft 330 kts 224°
2026-05-04 23:21 32.94383 -91.57941 10626 ft 318 kts 223°
2026-05-04 23:21 32.92760 -91.59591 10113 ft 296 kts 224°
2026-05-04 23:21 32.91237 -91.61141 9540 ft 281 kts 224°
2026-05-04 23:22 32.89782 -91.62628 8926 ft 270 kts 223°
2026-05-04 23:22 32.88394 -91.64044 8344 ft 261 kts 223°
2026-05-04 23:22 32.87028 -91.65431 7762 ft 254 kts 223°
2026-05-04 23:22 32.85692 -91.66792 7196 ft 250 kts 223°
2026-05-04 23:23 32.84373 -91.68138 6637 ft 248 kts 222°
2026-05-04 23:23 32.83064 -91.69460 6068 ft 245 kts 223°
2026-05-04 23:23 32.81774 -91.70775 5495 ft 243 kts 222°
2026-05-04 23:23 32.80511 -91.72057 4924 ft 240 kts 221°
2026-05-04 23:24 32.79248 -91.73341 4368 ft 238 kts 221°
2026-05-04 23:24 32.77993 -91.74614 3785 ft 235 kts 221°
2026-05-04 23:24 32.76736 -91.75887 3223 ft 240 kts 220°
2026-05-04 23:24 32.75481 -91.77162 3026 ft 231 kts 220°
2026-05-04 23:25 32.74236 -91.78297 3014 ft 223 kts 211°
2026-05-04 23:25 32.72872 -91.79069 2998 ft 217 kts 206°
2026-05-04 23:25 32.71532 -91.79866 3001 ft 216 kts 211°
2026-05-04 23:25 32.70314 -91.80925 2991 ft 219 kts 223°
2026-05-04 23:26 32.69230 -91.82193 3002 ft 218 kts 224°
2026-05-04 23:26 32.68153 -91.83465 3002 ft 217 kts 225°
2026-05-04 23:26 32.67095 -91.84716 3000 ft 217 kts 225°
2026-05-04 23:26 32.66029 -91.85993 3006 ft 218 kts 226°
2026-05-04 23:27 32.64973 -91.87258 3005 ft 205 kts 224°
2026-05-04 23:27 32.64026 -91.88382 3001 ft 186 kts 225°
2026-05-04 23:27 32.63159 -91.89414 3011 ft 165 kts 224°
2026-05-04 23:27 32.62386 -91.90329 2879 ft 151 kts 224°
2026-05-04 23:28 32.61642 -91.91214 2679 ft 150 kts 225°
2026-05-04 23:28 32.60917 -91.92068 2471 ft 146 kts 225°
2026-05-04 23:28 32.60215 -91.92904 2291 ft 139 kts 224°
2026-05-04 23:28 32.59539 -91.93706 2109 ft 135 kts 225°
2026-05-04 23:29 32.58886 -91.94479 1937 ft 129 kts 224°
2026-05-04 23:29 32.58266 -91.95211 1767 ft 127 kts 224°
2026-05-04 23:29 32.57644 -91.95964 1603 ft 129 kts 224°
2026-05-04 23:29 32.56998 -91.96727 1440 ft 135 kts 224°
2026-05-04 23:30 32.56343 -91.97503 1269 ft 129 kts 225°
2026-05-04 23:30 32.55743 -91.98218 1105 ft 118 kts 224°
2026-05-04 23:30 32.55168 -91.98900 956 ft 114 kts 224°
2026-05-04 23:30 32.54601 -91.99568 822 ft 116 kts 225°
2026-05-04 23:31 32.54011 -92.00271 690 ft 125 kts 221°
2026-05-04 23:31 32.53395 -92.00995 541 ft 125 kts 223°
2026-05-04 23:31 32.52791 -92.01720 393 ft 123 kts 221°
2026-05-04 23:31 32.52209 -92.02409 220 ft 108 kts 225°
2026-05-04 23:32 32.51717 -92.02992 83 ft 90 kts 225°
2026-05-04 23:32 32.51358 -92.03418 73 ft 49 kts 225°
2026-05-04 23:32 32.51179 -92.03630 76 ft 21 kts 230°
2026-05-04 23:32 32.51234 -92.03752 81 ft 19 kts 321°
2026-05-04 23:33 32.51263 -92.03835 81 ft 6 kts 231°
2026-05-04 23:33 32.51259 -92.03840 84 ft 0 kts 231°
2026-05-04 23:33 32.51256 -92.03844 82 ft 6 kts 232°
2026-05-04 23:33 32.51220 -92.03900 80 ft 13 kts 233°
2026-05-04 23:34 32.51177 -92.04003 77 ft 15 kts 268°
2026-05-04 23:34 32.51176 -92.04122 81 ft 12 kts 267°
2026-05-04 23:34 32.51158 -92.04172 81 ft 0 kts 252°
2026-05-04 23:34 32.51157 -92.04181 84 ft 0 kts 268°